This demonstration page uses our WeatherBlox Daily Observations layout. Learn more.

40.92945, -100.16068

Hourly Observations for April 12, 2018

Temp ( °F °C ) Dew Point ( °F °C ) Humidity (%) Winds ( mph kmh ) Pressure ( in mb ) Visibility ( mi km ) Precip ( " mm )
12:15 am 00:15 Clear 57 13.9 36 2.2 45 45 ESE 6 9 29.65 1004 10 16.0934 0 0
12:35 am 00:35 Clear 55 13 36 2.4 49 49 ESE 3 6 29.71 1006 10 16.0934 0 0
12:55 am 00:55 Clear 56 13.2 36 2 47 47 NE 3 6 29.71 1006 10 16.0934 0 0
1:15 am 01:15 Clear 50 10 35 1.5 56 56 NNE 7 11 29.74 1007 10 16.0934 0 0
1:35 am 01:35 Clear 52 11 37 2.6 56 56 NNE 10 17 29.71 1006 10 16.0934 0 0
1:55 am 01:55 Clear 49 9.6 37 2.7 62 62 NNE 10 17 29.74 1007 10 16.0934 0 0
2:15 am 02:15 Clear 49 9.7 38 3.5 66 66 NNE 10 17 29.74 1007 10 16.0934 0 0
2:35 am 02:35 Clear 47 8.4 37 3 69 69 N 5 7 29.74 1007 10 16.0934 0 0
2:55 am 02:55 Clear 44 6.4 36 2.3 75 75 N 7 11 29.77 1008 10 16.0934 0 0
3:15 am 03:15 Clear 44 6.6 37 3 78 78 NNE 9 15 29.74 1007 10 16.0934 0 0
3:35 am 03:35 Clear 46 8 38 3.3 72 72 NNE 6 9 29.71 1006 10 16.0934 0 0
3:55 am 03:55 Clear 45 7.2 37 3 75 75 NNE 6 9 29.71 1006 10 16.0934 0 0
4:15 am 04:15 Clear 46 8 38 3.5 74 74 NNE 8 13 29.71 1006 10 16.0934 0 0
4:35 am 04:35 Clear 47 8.5 39 3.9 73 73 NNE 12 19 29.71 1006 10 16.0934 0 0
4:55 am 04:55 Clear 45 7.4 38 3.4 76 76 NNE 5 7 29.71 1006 10 16.0934 0 0
5:15 am 05:15 Clear 44 6.9 38 3.1 77 77 NNE 6 9 29.74 1007 10 16.0934 0 0
5:35 am 05:35 Clear 44 6.5 37 2.7 77 77 NE 5 7 29.74 1007 10 16.0934 0 0
5:55 am 05:55 Clear 44 6.7 37 2.7 76 76 NE 7 11 29.74 1007 10 16.0934 0 0
6:15 am 06:15 Clear 44 6.7 37 2.9 77 77 ENE 5 7 29.74 1007 10 16.0934 0 0
6:35 am 06:35 Clear 45 7 38 3.5 79 79 ENE 7 11 29.71 1006 10 16.0934 0 0
6:50 am 06:50 Clear 44 6.9 38 3.5 79 79 E 8 13 29.74 1007 10 16.0934 0 0
7:15 am 07:15 Sunny 44 6.8 38 3.5 80 80 NE 8 13 29.68 1005 10 16.0934 0 0
7:35 am 07:35 Sunny 46 7.7 39 4 78 78 ENE 13 20 29.68 1005 10 16.0934 0 0
7:55 am 07:55 Sunny 47 8.1 39 4.1 76 76 ENE 12 19 29.68 1005 10 16.0934 0 0
8:15 am 08:15 Sunny 47 8.5 40 4.5 76 76 ENE 12 19 29.65 1004 10 16.0934 0 0
8:35 am 08:35 Sunny 49 9.2 40 4.6 73 73 ENE 12 19 29.65 1004 10 16.0934 0 0
8:55 am 08:55 Sunny 50 10.2 41 5 70 70 ENE 12 19 29.62 1003 10 16.0934 0 0
9:15 am 09:15 Sunny 51 10.5 41 5 69 69 ENE 16 26 29.62 1003 10 16.0934 0 0
9:35 am 09:35 Sunny 51 10.7 41 4.9 68 68 ENE 17 28 29.62 1003 10 16.0934 0 0
9:55 am 09:55 Sunny 52 11.3 41 5.2 66 66 E 18 30 29.59 1002 10 16.0934 0 0
10:15 am 10:15 Sunny 54 12.1 42 5.4 64 64 E 23 37 29.59 1002 10 16.0934 0 0
10:35 am 10:35 Sunny 55 12.7 42 5.3 61 61 E 18 30 29.62 1003 10 16.0934 0 0
10:55 am 10:55 Sunny 56 13.1 42 5.3 59 59 E 16 26 29.59 1002 10 16.0934 0 0
11:15 am 11:15 Sunny 56 13.5 41 5.2 57 57 E 16 26 29.59 1002 10 16.0934 0 0
11:35 am 11:35 Sunny 57 14 42 5.6 57 57 E 15 24 29.59 1002 10 16.0934 0 0
11:55 am 11:55 Sunny 58 14.5 42 5.8 56 56 E 20 31 29.59 1002 10 16.0934 0 0
12:15 pm 12:15 Sunny 60 15.4 43 5.9 53 53 E 16 26 29.56 1001 10 16.0934 0 0
12:35 pm 12:35 Sunny 61 16.1 43 5.9 51 51 E 16 26 29.53 1000 10 16.0934 0 0
12:55 pm 12:55 Sunny 61 16 42 5.7 51 51 E 14 22 29.5 999 10 16.0934 0 0
1:15 pm 13:15 Sunny 61 16.3 42 5.8 50 50 ENE 20 31 29.5 999 10 16.0934 0 0
1:35 pm 13:35 Sunny 63 17 43 6.1 49 49 E 24 39 29.47 998 10 16.0934 0 0
1:55 pm 13:55 Sunny 64 17.8 43 6.3 47 47 E 24 39 29.44 997 10 16.0934 0 0
2:15 pm 14:15 Sunny 65 18.5 43 6.2 45 45 E 18 30 29.47 998 10 16.0934 0 0
2:35 pm 14:35 Sunny 65 18.5 43 6.1 44 44 E 21 33 29.41 996 10 16.0934 0 0
2:55 pm 14:55 Sunny 65 18.5 43 6.2 45 45 ESE 20 31 29.41 996 10 16.0934 0 0
3:15 pm 15:15 Sunny 65 18.3 43 6.3 46 46 ESE 21 33 29.44 997 10 16.0934 0 0
3:35 pm 15:35 Sunny 65 18.4 44 6.6 46 46 ESE 17 28 29.44 997 10 16.0934 0 0
3:55 pm 15:55 Sunny 66 18.7 44 6.7 46 46 ESE 15 24 29.38 995 10 16.0934 0 0
4:15 pm 16:15 Sunny 66 18.7 44 6.7 46 46 E 16 26 29.38 995 10 16.0934 0 0
4:35 pm 16:35 Sunny 65 18.6 44 6.5 45 45 E 17 28 29.38 995 10 16.0934 0 0
4:55 pm 16:55 Sunny 66 18.8 44 6.6 45 45 E 15 24 29.38 995 10 16.0934 0 0
5:15 pm 17:15 Sunny 65 18.5 44 6.7 46 46 E 15 24 29.38 995 10 16.0934 0 0
5:35 pm 17:35 Sunny 65 18.6 44 6.9 47 47 E 14 22 29.35 994 10 16.0934 0 0
5:55 pm 17:55 Sunny 67 19.4 45 7 45 45 E 15 24 29.35 994 10 16.0934 0 0
6:15 pm 18:15 Sunny 65 18.6 45 7 47 47 E 13 20 29.35 994 10 16.0934 0 0
6:35 pm 18:35 Sunny 65 18.1 44 6.6 47 47 E 18 30 29.35 994 10 16.0934 0 0
6:55 pm 18:55 Sunny 64 17.7 44 6.5 48 48 E 20 31 29.32 993 10 16.0934 0 0
7:15 pm 19:15 Sunny 63 17.3 44 6.5 49 49 E 16 26 29.35 994 10 16.0934 0 0
7:35 pm 19:35 Sunny 62 16.7 44 6.5 51 51 E 16 26 29.35 994 10 16.0934 0 0
7:55 pm 19:55 Sunny 61 15.9 44 6.5 54 54 ENE 12 19 29.35 994 10 16.0934 0 0
8:15 pm 20:15 Sunny 59 15.2 44 6.5 56 56 ENE 12 19 29.35 994 10 16.0934 0 0
8:35 pm 20:35 Clear 59 14.8 44 6.5 58 58 ENE 13 20 29.32 993 10 16.0934 0 0
8:55 pm 20:55 Clear 58 14.5 43 6.3 58 58 ENE 15 24 29.32 993 10 16.0934 0 0
9:15 pm 21:15 Clear 58 14.5 43 6.1 57 57 ENE 16 26 29.32 993 10 16.0934 0 0
9:35 pm 21:35 Clear 57 14 43 6 59 59 ENE 20 31 29.32 993 10 16.0934 0 0
9:55 pm 21:55 Clear 56 13.6 42 5.5 58 58 ENE 21 33 29.35 994 10 16.0934 0 0
10:15 pm 22:15 Clear 56 13.3 42 5.3 59 59 ENE 22 35 29.35 994 10 16.0934 0 0
10:35 pm 22:35 Clear 55 13 41 5.1 59 59 ENE 23 37 29.32 993 10 16.0934 0 0
10:55 pm 22:55 Clear 55 12.7 41 5 60 60 ENE 22 35 29.32 993 10 16.0934 0 0
11:15 pm 23:15 Clear 55 12.6 41 5 60 60 ENE 21 33 29.32 993 10 16.0934 0 0
11:35 pm 23:35 Clear 55 12.5 41 4.8 60 60 ENE 18 30 29.32 993 10 16.0934 0 0
11:55 pm 23:55 Clear 54 12.4 41 5 61 61 NE 20 31 29.32 993 10 16.0934 0 0

Powered by AerisWeather